{"data":{"norad_id":62766,"epoch":"2026-09-21T20:22:08.202720Z","epoch_age_seconds":54814,"freshness":"FRESH","line1":"1 62766U 25015J   26264.84870605  .00040111  00000+0  11912-2 0  9990","line2":"2 62766  53.1568 127.0888 0000607 124.7158 235.3902 15.34418870 94572","mean_motion":15.3441887,"eccentricity":6.07e-5,"inclination_deg":53.1568,"raan_deg":127.0888,"arg_perigee_deg":124.7158,"mean_anomaly_deg":235.3902,"bstar":0.0011912,"rev_number":9457,"period_min":93.846603958931,"perigee_km":462.23191956699,"apogee_km":463.06239076343,"semimajor_km":6840.7841551652,"source":"CELESTRAK","updated_at":"2026-09-22T09:00:49.662049Z"}}